QPF
0.02 0.02 0.02 0.02 0.03 0.04 0.06 0.06 0.05 0.03 0.03 0.05 0.05 0.05 0.05 0.03 0.02 0.02 0.01 0.01 0.01 0.01 0.01 0.00 0.00 0.00 0.00 0.00 0.00 0.00 0.01 0.01 0.01 0.02 0.03 0.04 0.06 0.06 0.04 0.04 0.04 0.04 0.04 0.04
0.01 0.01 0.01 0.01 0.02 0.02 0.03 0.04 0.04 0.03 0.04 0.04 0.04 0.04 0.04 0.03 0.03 0.03 0.02 0.01 0.01 0.01 0.01 0.01 0.01 0.00 0.00 0.00 0.00 0.00 0.00 0.01 0.01 0.01 0.02 0.05 0.05 0.05 0.05 0.04 0.03 0.03 0.03 0.03
0.01 0.01 0.01 0.03 0.04 0.03 0.03 0.03 0.04 0.04 0.05 0.04 0.04 0.04 0.05 0.04 0.04 0.04 0.03 0.02 0.02 0.01 0.01 0.01 0.01 0.01 0.01 0.01 0.01 0.01 0.01 0.01 0.01 0.01 0.01 0.04 0.06 0.06 0.06 0.05 0.04 0.03 0.02 0.02
0.01 0.01 0.02 0.03 0.03 0.03 0.03 0.04 0.04 0.05 0.04 0.04 0.04 0.04 0.04 0.03 0.03 0.04 0.03 0.02 0.02 0.02 0.01 0.01 0.01 0.01 0.01 0.01 0.01 0.01 0.01 0.01 0.01 0.01 0.02 0.02 0.04 0.06 0.06 0.07 0.07 0.04 0.03 0.02
0.01 0.01 0.01 0.02 0.01 0.03 0.03 0.03 0.04 0.04 0.04 0.03 0.03 0.02 0.03 0.02 0.02 0.04 0.03 0.02 0.02 0.02 0.02 0.01 0.01 0.01 0.01 0.01 0.02 0.02 0.02 0.02 0.02 0.02 0.02 0.02 0.03 0.05 0.06 0.06 0.07 0.07 0.05 0.03
0.01 0.01 0.01 0.02 0.01 0.02 0.03 0.03 0.02 0.03 0.03 0.03 0.03 0.02 0.02 0.02 0.02 0.03 0.03 0.02 0.02 0.02 0.02 0.01 0.01 0.01 0.01 0.02 0.03 0.03 0.03 0.03 0.03 0.03 0.03 0.02 0.03 0.04 0.05 0.06 0.06 0.06 0.06 0.04
0.01 0.01 0.01 0.02 0.01 0.01 0.02 0.02 0.02 0.03 0.04 0.04 0.04 0.03 0.02 0.02 0.02 0.02 0.02 0.02 0.02 0.02 0.02 0.02 0.02 0.01 0.01 0.02 0.03 0.04 0.03 0.03 0.03 0.04 0.03 0.03 0.03 0.03 0.04 0.04 0.04 0.04 0.04 0.05
0.02 0.02 0.02 0.01 0.01 0.02 0.03 0.02 0.03 0.03 0.04 0.04 0.04 0.03 0.03 0.02 0.02 0.01 0.02 0.01 0.01 0.01 0.01 0.01 0.02 0.02 0.02 0.02 0.03 0.03 0.03 0.02 0.03 0.04 0.03 0.04 0.04 0.04 0.04 0.03 0.03 0.03 0.03 0.03
0.02 0.02 0.02 0.02 0.03 0.03 0.03 0.03 0.03 0.04 0.04 0.04 0.03 0.03 0.03 0.02 0.02 0.01 0.01 0.01 0.01 0.01 0.01 0.01 0.01 0.02 0.03 0.02 0.03 0.03 0.03 0.02 0.02 0.03 0.04 0.04 0.04 0.04 0.05 0.04 0.03 0.02 0.02 0.02
0.02 0.01 0.01 0.01 0.01 0.02 0.02 0.03 0.03 0.04 0.04 0.04 0.03 0.03 0.03 0.03 0.02 0.01 0.01 0.01 0.01 0.01 0.01 0.01 0.01 0.02 0.03 0.02 0.02 0.03 0.03 0.03 0.02 0.02 0.03 0.03 0.03 0.03 0.04 0.04 0.03 0.02 0.02 0.01
0.01 0.01 0.01 0.01 0.01 0.01 0.01 0.02 0.02 0.03 0.03 0.04 0.03 0.03 0.03 0.03 0.02 0.02 0.01 0.02 0.02 0.02 0.02 0.01 0.02 0.02 0.03 0.03 0.02 0.03 0.03 0.03 0.02 0.02 0.01 0.02 0.02 0.02 0.03 0.03 0.03 0.02 0.02 0.01
0.01 0.01 0.01 0.01 0.01 0.01 0.01 0.01 0.02 0.02 0.02 0.03 0.03 0.03 0.02 0.02 0.02 0.02 0.02 0.02 0.02 0.02 0.02 0.02 0.02 0.03 0.04 0.04 0.04 0.04 0.04 0.03 0.02 0.02 0.02 0.02 0.02 0.02 0.03 0.03 0.03 0.02 0.02 0.01
0.01 0.01 0.01 0.01 0.01 0.01 0.01 0.01 0.01 0.02 0.02 0.02 0.02 0.02 0.02 0.02 0.02 0.02 0.02 0.02 0.03 0.03 0.03 0.03 0.03 0.03 0.04 0.04 0.04 0.05 0.04 0.04 0.03 0.02 0.02 0.01 0.01 0.02 0.02 0.03 0.03 0.03 0.02 0.02
0.01 0.01 0.01 0.01 0.01 0.01 0.01 0.01 0.01 0.01 0.02 0.02 0.02 0.02 0.01 0.01 0.01 0.01 0.02 0.02 0.03 0.03 0.03 0.03 0.03 0.03 0.03 0.03 0.04 0.04 0.04 0.04 0.03 0.02 0.02 0.02 0.02 0.02 0.02 0.03 0.03 0.03 0.02 0.02
0.01 0.01 0.01 0.01 0.01 0.01 0.01 0.01 0.01 0.01 0.01 0.02 0.02 0.01 0.01 0.01 0.01 0.02 0.02 0.02 0.02 0.02 0.03 0.02 0.03 0.03 0.03 0.03 0.03 0.04 0.04 0.04 0.03 0.03 0.02 0.02 0.03 0.03 0.04 0.04 0.04 0.03 0.02 0.02
0.01 0.01 0.01 0.01 0.01 0.01 0.01 0.01 0.01 0.02 0.02 0.02 0.02 0.02 0.02 0.02 0.02 0.02 0.02 0.02 0.02 0.03 0.03 0.02 0.03 0.03 0.03 0.03 0.03 0.04 0.05 0.05 0.04 0.04 0.03 0.03 0.03 0.04 0.04 0.05 0.04 0.04 0.03 0.02
0.01 0.01 0.01 0.01 0.01 0.01 0.01 0.02 0.02 0.02 0.02 0.02 0.02 0.02 0.02 0.02 0.02 0.02 0.02 0.02 0.02 0.02 0.02 0.03 0.03 0.03 0.03 0.03 0.03 0.04 0.05 0.05 0.05 0.04 0.04 0.04 0.04 0.04 0.04 0.03 0.03 0.02 0.03 0.03
0.01 0.01 0.02 0.02 0.02 0.02 0.02 0.02 0.02 0.02 0.02 0.02 0.02 0.02 0.02 0.02 0.03 0.03 0.03 0.03 0.02 0.02 0.02 0.03 0.03 0.03 0.03 0.03 0.03 0.04 0.05 0.05 0.05 0.05 0.04 0.04 0.04 0.04 0.05 0.04 0.03 0.03 0.03 0.03
0.01 0.01 0.01 0.01 0.01 0.01 0.01 0.01 0.01 0.01 0.01 0.01 0.01 0.01 0.02 0.02 0.02 0.03 0.03 0.02 0.02 0.03 0.03 0.03 0.03 0.03 0.03 0.03 0.03 0.03 0.04 0.04 0.04 0.04 0.05 0.05 0.04 0.04 0.04 0.04 0.04 0.03 0.03 0.03
0.01 0.01 0.01 0.01 0.01 0.01 0.01 0.01 0.01 0.01 0.01 0.02 0.02 0.02 0.02 0.02 0.03 0.03 0.03 0.03 0.03 0.03 0.03 0.03 0.02 0.02 0.03 0.03 0.03 0.03 0.03 0.03 0.04 0.04 0.04 0.04 0.04 0.04 0.04 0.04 0.04 0.03 0.03 0.03
0.01 0.01 0.01 0.01 0.01 0.01 0.01 0.01 0.01 0.01 0.01 0.02 0.02 0.02 0.02 0.02 0.02 0.02 0.02 0.03 0.03 0.03 0.02 0.02 0.02 0.02 0.03 0.03 0.03 0.03 0.03 0.03 0.03 0.03 0.03 0.03 0.03 0.03 0.03 0.03 0.03 0.03 0.03 0.03
0.01 0.01 0.01 0.01 0.01 0.01 0.01 0.01 0.01 0.01 0.01 0.01 0.01 0.02 0.02 0.02 0.02 0.02 0.02 0.03 0.03 0.02 0.03 0.02 0.02 0.02 0.02 0.03 0.02 0.02 0.02 0.02 0.02 0.02 0.02 0.02 0.02 0.02 0.02 0.02 0.03 0.03 0.03 0.03
0.01 0.01 0.01 0.01 0.01 0.01 0.01 0.01 0.01 0.01 0.01 0.01 0.01 0.01 0.01 0.01 0.02 0.02 0.02 0.02 0.02 0.02 0.02 0.03 0.03 0.02 0.02 0.02 0.02 0.01 0.01 0.01 0.01 0.01 0.01 0.01 0.02 0.02 0.02 0.02 0.02 0.02 0.02 0.02
0.01 0.01 0.01 0.01 0.01 0.01 0.01 0.01 0.01 0.01 0.01 0.01 0.01 0.01 0.01 0.01 0.01 0.02 0.02 0.02 0.02 0.02 0.02 0.03 0.03 0.02 0.02 0.01 0.01 0.01 0.01 0.01 0.01 0.01 0.01 0.01 0.01 0.02 0.01 0.01 0.02 0.02 0.02 0.02
0.01 0.01 0.01 0.01 0.01 0.01 0.01 0.01 0.01 0.01 0.01 0.01 0.01 0.01 0.01 0.02 0.02 0.02 0.02 0.02 0.02 0.02 0.02 0.02 0.02 0.02 0.02 0.01 0.01 0.01 0.01 0.01 0.01 0.01 0.01 0.01 0.01 0.01 0.01 0.01 0.01 0.01 0.01 0.02
0.01 0.01 0.01 0.01 0.01 0.01 0.01 0.01 0.01 0.01 0.01 0.01 0.01 0.01 0.01 0.01 0.01 0.01 0.01 0.02 0.02 0.02 0.01 0.01 0.01 0.01 0.01 0.01 0.01 0.01 0.01 0.01 0.01 0.01 0.01 0.01 0.01 0.01 0.01 0.01 0.01 0.01 0.01 0.01
0.01 0.01 0.01 0.01 0.01 0.01 0.01 0.01 0.01 0.01 0.01 0.01 0.01 0.01 0.01 0.01 0.01 0.01 0.01 0.01 0.01 0.01 0.01 0.01 0.01 0.01 0.01 0.01 0.01 0.01 0.01 0.01 0.01 0.01 0.01 0.01 0.01 0.01 0.01 0.01 0.01 0.01 0.01 0.01
MSLP
1038.85 1038.79 1038.66 1038.46 1038.19 1037.82 1037.34 1036.74 1036.03 1035.23 1034.37 1033.51 1032.70 1032.00 1031.46 1031.10 1030.92 1030.89 1030.97 1031.10 1031.22 1031.27 1031.20 1031.01 1030.69 1030.26 1029.77 1029.24 1028.72 1028.23 1027.78 1027.38 1027.02 1026.67 1026.32 1025.96 1025.57 1025.16 1024.73 1024.28 1023.84 1023.39 1022.94 1022.48
1039.29 1039.03 1038.64 1038.14 1037.55 1036.89 1036.17 1035.41 1034.63 1033.85 1033.10 1032.42 1031.83 1031.36 1031.03 1030.83 1030.77 1030.80 1030.89 1030.99 1031.05 1031.03 1030.90 1030.66 1030.32 1029.88 1029.39 1028.87 1028.36 1027.87 1027.41 1027.00 1026.61 1026.24 1025.87 1025.50 1025.11 1024.70 1024.28 1023.85 1023.41 1022.97 1022.51 1022.04
1039.69 1039.22 1038.56 1037.77 1036.89 1035.97 1035.05 1034.17 1033.35 1032.61 1031.98 1031.47 1031.08 1030.82 1030.66 1030.60 1030.62 1030.68 1030.74 1030.78 1030.76 1030.67 1030.48 1030.19 1029.82 1029.39 1028.91 1028.42 1027.92 1027.44 1026.99 1026.56 1026.16 1025.77 1025.38 1024.99 1024.60 1024.19 1023.77 1023.34 1022.91 1022.45 1021.99 1021.50
1039.98 1039.29 1038.40 1037.36 1036.25 1035.13 1034.06 1033.09 1032.26 1031.59 1031.07 1030.71 1030.48 1030.37 1030.33 1030.35 1030.40 1030.43 1030.44 1030.40 1030.30 1030.13 1029.88 1029.56 1029.19 1028.77 1028.33 1027.87 1027.41 1026.95 1026.50 1026.07 1025.65 1025.24 1024.83 1024.42 1024.02 1023.60 1023.18 1022.74 1022.30 1021.83 1021.34 1020.83
1040.02 1039.15 1038.06 1036.84 1035.56 1034.31 1033.17 1032.17 1031.37 1030.76 1030.34 1030.09 1029.97 1029.95 1029.97 1030.01 1030.03 1030.01 1029.94 1029.82 1029.63 1029.39 1029.10 1028.77 1028.42 1028.04 1027.64 1027.23 1026.81 1026.38 1025.95 1025.51 1025.07 1024.64 1024.20 1023.77 1023.34 1022.91 1022.47 1022.02 1021.56 1021.07 1020.57 1020.03
1039.69 1038.66 1037.45 1036.11 1034.76 1033.46 1032.31 1031.34 1030.58 1030.05 1029.71 1029.53 1029.48 1029.49 1029.52 1029.52 1029.49 1029.39 1029.23 1029.02 1028.76 1028.48 1028.17 1027.86 1027.54 1027.21 1026.87 1026.52 1026.14 1025.74 1025.32 1024.88 1024.42 1023.95 1023.48 1023.01 1022.54 1022.08 1021.62 1021.15 1020.67 1020.17 1019.65 1019.10
1038.87 1037.75 1036.46 1035.10 1033.75 1032.49 1031.39 1030.50 1029.82 1029.36 1029.09 1028.96 1028.93 1028.93 1028.93 1028.88 1028.77 1028.59 1028.36 1028.08 1027.77 1027.46 1027.16 1026.88 1026.61 1026.34 1026.06 1025.76 1025.43 1025.05 1024.63 1024.17 1023.68 1023.17 1022.64 1022.13 1021.61 1021.11 1020.62 1020.12 1019.62 1019.11 1018.58 1018.04
1037.53 1036.37 1035.10 1033.79 1032.52 1031.37 1030.38 1029.60 1029.02 1028.64 1028.43 1028.33 1028.30 1028.27 1028.22 1028.11 1027.94 1027.69 1027.40 1027.08 1026.75 1026.45 1026.17 1025.92 1025.70 1025.49 1025.26 1025.00 1024.69 1024.32 1023.88 1023.39 1022.86 1022.29 1021.71 1021.14 1020.57 1020.02 1019.48 1018.96 1018.44 1017.92 1017.40 1016.87
1035.74 1034.60 1033.41 1032.22 1031.11 1030.11 1029.28 1028.64 1028.18 1027.88 1027.72 1027.64 1027.60 1027.55 1027.45 1027.29 1027.07 1026.79 1026.47 1026.13 1025.81 1025.53 1025.28 1025.07 1024.88 1024.71 1024.51 1024.26 1023.95 1023.57 1023.10 1022.57 1021.98 1021.35 1020.70 1020.06 1019.44 1018.83 1018.25 1017.69 1017.16 1016.63 1016.12 1015.62
1033.63 1032.58 1031.53 1030.53 1029.60 1028.81 1028.16 1027.67 1027.33 1027.12 1027.00 1026.93 1026.88 1026.81 1026.68 1026.50 1026.25 1025.96 1025.64 1025.32 1025.02 1024.76 1024.54 1024.36 1024.19 1024.02 1023.82 1023.56 1023.23 1022.80 1022.29 1021.70 1021.05 1020.36 1019.65 1018.94 1018.25 1017.59 1016.96 1016.37 1015.81 1015.29 1014.78 1014.31
1031.39 1030.50 1029.64 1028.85 1028.15 1027.57 1027.11 1026.77 1026.54 1026.40 1026.31 1026.26 1026.20 1026.12 1025.98 1025.79 1025.55 1025.28 1024.98 1024.69 1024.42 1024.18 1023.97 1023.79 1023.61 1023.42 1023.19 1022.88 1022.50 1022.02 1021.45 1020.80 1020.09 1019.34 1018.57 1017.80 1017.05 1016.33 1015.66 1015.03 1014.44 1013.90 1013.41 1012.95
1029.23 1028.53 1027.89 1027.34 1026.87 1026.49 1026.20 1026.00 1025.86 1025.77 1025.71 1025.66 1025.60 1025.51 1025.38 1025.20 1024.98 1024.74 1024.48 1024.22 1023.97 1023.74 1023.52 1023.32 1023.10 1022.85 1022.56 1022.19 1021.74 1021.19 1020.56 1019.86 1019.09 1018.29 1017.46 1016.64 1015.84 1015.07 1014.35 1013.68 1013.06 1012.50 1011.99 1011.54
1027.28 1026.79 1026.39 1026.07 1025.81 1025.62 1025.48 1025.38 1025.31 1025.25 1025.20 1025.14 1025.07 1024.97 1024.84 1024.68 1024.50 1024.29 1024.06 1023.83 1023.59 1023.35 1023.11 1022.85 1022.57 1022.25 1021.87 1021.43 1020.90 1020.29 1019.61 1018.85 1018.04 1017.20 1016.34 1015.47 1014.63 1013.82 1013.05 1012.33 1011.66 1011.07 1010.53 1010.07
1025.60 1025.33 1025.15 1025.04 1024.98 1024.94 1024.91 1024.88 1024.84 1024.80 1024.73 1024.66 1024.57 1024.46 1024.34 1024.19 1024.03 1023.85 1023.65 1023.43 1023.19 1022.92 1022.64 1022.32 1021.96 1021.55 1021.09 1020.56 1019.96 1019.30 1018.57 1017.78 1016.94 1016.07 1015.18 1014.29 1013.41 1012.55 1011.73 1010.96 1010.24 1009.59 1009.02 1008.52
1024.19 1024.12 1024.14 1024.22 1024.31 1024.39 1024.43 1024.44 1024.41 1024.35 1024.26 1024.15 1024.04 1023.92 1023.80 1023.66 1023.52 1023.36 1023.17 1022.95 1022.69 1022.39 1022.05 1021.66 1021.22 1020.73 1020.19 1019.58 1018.93 1018.21 1017.45 1016.64 1015.79 1014.90 1014.00 1013.08 1012.17 1011.27 1010.40 1009.57 1008.79 1008.09 1007.46 1006.90
1022.99 1023.09 1023.28 1023.50 1023.70 1023.86 1023.95 1023.98 1023.94 1023.85 1023.72 1023.59 1023.44 1023.31 1023.18 1023.05 1022.92 1022.76 1022.58 1022.35 1022.07 1021.73 1021.33 1020.87 1020.36 1019.79 1019.18 1018.52 1017.82 1017.07 1016.29 1015.47 1014.61 1013.72 1012.80 1011.87 1010.92 1009.98 1009.06 1008.18 1007.34 1006.57 1005.88 1005.27
1021.93 1022.17 1022.48 1022.80 1023.08 1023.28 1023.40 1023.42 1023.36 1023.25 1023.09 1022.92 1022.76 1022.61 1022.48 1022.35 1022.22 1022.07 1021.88 1021.64 1021.33 1020.95 1020.50 1019.99 1019.42 1018.79 1018.13 1017.43 1016.70 1015.94 1015.15 1014.32 1013.47 1012.57 1011.65 1010.69 1009.72 1008.74 1007.77 1006.83 1005.94 1005.11 1004.36 1003.69
1020.96 1021.30 1021.69 1022.07 1022.39 1022.62 1022.74 1022.76 1022.68 1022.54 1022.37 1022.19 1022.01 1021.86 1021.73 1021.61 1021.48 1021.33 1021.13 1020.87 1020.54 1020.13 1019.64 1019.08 1018.47 1017.81 1017.11 1016.39 1015.64 1014.88 1014.09 1013.27 1012.41 1011.52 1010.58 1009.61 1008.61 1007.60 1006.59 1005.61 1004.67 1003.79 1002.98 1002.27
1020.06 1020.46 1020.90 1021.31 1021.64 1021.87 1021.99 1021.99 1021.91 1021.77 1021.59 1021.41 1021.24 1021.10 1020.98 1020.87 1020.75 1020.60 1020.40 1020.12 1019.77 1019.33 1018.81 1018.23 1017.59 1016.90 1016.20 1015.47 1014.72 1013.96 1013.18 1012.37 1011.52 1010.62 1009.68 1008.70 1007.69 1006.65 1005.62 1004.60 1003.63 1002.72 1001.89 1001.14
1019.25 1019.67 1020.12 1020.53 1020.86 1021.08 1021.18 1021.18 1021.10 1020.97 1020.81 1020.65 1020.51 1020.39 1020.30 1020.20 1020.09 1019.94 1019.74 1019.45 1019.08 1018.62 1018.09 1017.48 1016.83 1016.14 1015.43 1014.71 1013.98 1013.23 1012.46 1011.67 1010.83 1009.95 1009.01 1008.03 1007.01 1005.97 1004.93 1003.91 1002.93 1002.01 1001.16 1000.41
1018.54 1018.96 1019.39 1019.78 1020.08 1020.28 1020.37 1020.37 1020.31 1020.20 1020.07 1019.96 1019.86 1019.78 1019.72 1019.65 1019.55 1019.40 1019.19 1018.89 1018.51 1018.03 1017.48 1016.87 1016.22 1015.53 1014.84 1014.13 1013.42 1012.70 1011.96 1011.19 1010.37 1009.51 1008.60 1007.64 1006.63 1005.61 1004.58 1003.58 1002.61 1001.71 1000.88 1000.14
1017.94 1018.34 1018.73 1019.07 1019.33 1019.50 1019.58 1019.59 1019.55 1019.48 1019.40 1019.34 1019.30 1019.27 1019.25 1019.21 1019.12 1018.98 1018.76 1018.45 1018.05 1017.56 1017.00 1016.39 1015.74 1015.07 1014.39 1013.71 1013.03 1012.35 1011.65 1010.92 1010.15 1009.33 1008.45 1007.53 1006.57 1005.59 1004.61 1003.64 1002.72 1001.86 1001.07 1000.36
1017.45 1017.81 1018.14 1018.42 1018.63 1018.77 1018.83 1018.85 1018.84 1018.82 1018.80 1018.81 1018.83 1018.86 1018.88 1018.86 1018.80 1018.66 1018.43 1018.11 1017.69 1017.19 1016.62 1016.00 1015.36 1014.70 1014.06 1013.42 1012.79 1012.15 1011.51 1010.84 1010.13 1009.37 1008.56 1007.71 1006.81 1005.90 1004.98 1004.09 1003.23 1002.43 1001.70 1001.04
1017.04 1017.33 1017.60 1017.81 1017.96 1018.06 1018.11 1018.14 1018.17 1018.20 1018.25 1018.33 1018.42 1018.51 1018.57 1018.59 1018.54 1018.41 1018.17 1017.83 1017.39 1016.87 1016.30 1015.68 1015.05 1014.43 1013.82 1013.23 1012.66 1012.09 1011.52 1010.93 1010.30 1009.62 1008.90 1008.13 1007.33 1006.50 1005.67 1004.86 1004.08 1003.36 1002.70 1002.11
1016.66 1016.89 1017.08 1017.21 1017.31 1017.37 1017.41 1017.46 1017.52 1017.62 1017.74 1017.90 1018.06 1018.21 1018.32 1018.37 1018.33 1018.20 1017.95 1017.60 1017.14 1016.62 1016.04 1015.43 1014.82 1014.23 1013.66 1013.13 1012.63 1012.14 1011.66 1011.16 1010.63 1010.05 1009.43 1008.76 1008.06 1007.33 1006.60 1005.88 1005.19 1004.55 1003.97 1003.44
1016.31 1016.46 1016.56 1016.63 1016.66 1016.69 1016.74 1016.81 1016.92 1017.08 1017.28 1017.51 1017.74 1017.95 1018.10 1018.18 1018.16 1018.03 1017.77 1017.41 1016.95 1016.41 1015.84 1015.25 1014.67 1014.11 1013.61 1013.14 1012.72 1012.32 1011.93 1011.53 1011.10 1010.63 1010.12 1009.56 1008.95 1008.33 1007.69 1007.06 1006.46 1005.90 1005.39 1004.94
1016.00 1016.06 1016.09 1016.08 1016.07 1016.08 1016.13 1016.23 1016.40 1016.62 1016.88 1017.18 1017.47 1017.73 1017.93 1018.03 1018.03 1017.90 1017.64 1017.27 1016.81 1016.28 1015.72 1015.15 1014.61 1014.11 1013.67 1013.28 1012.94 1012.63 1012.33 1012.03 1011.70 1011.33 1010.92 1010.45 1009.94 1009.41 1008.85 1008.31 1007.78 1007.29 1006.85 1006.47
Thickness
5305 5313 5316 5318 5324 5328 5329 5332 5338 5345 5349 5356 5361 5368 5375 5384 5392 5400 5408 5415 5421 5427 5432 5439 5446 5452 5458 5464 5471 5478 5483 5489 5493 5498 5501 5503 5506 5508 5511 5513 5515 5516 5517 5517
5301 5311 5313 5317 5319 5320 5323 5327 5331 5339 5341 5348 5353 5359 5365 5372 5381 5388 5394 5401 5409 5415 5421 5427 5434 5440 5446 5452 5458 5465 5471 5476 5481 5486 5489 5492 5495 5497 5499 5502 5504 5505 5507 5507
5293 5297 5308 5305 5307 5311 5313 5315 5322 5327 5332 5338 5345 5351 5355 5361 5368 5375 5382 5389 5396 5403 5409 5416 5421 5428 5434 5440 5446 5452 5458 5463 5468 5474 5478 5481 5484 5486 5488 5490 5492 5494 5495 5497
5280 5285 5285 5299 5301 5303 5307 5309 5313 5319 5324 5328 5334 5341 5347 5352 5357 5364 5371 5378 5385 5392 5399 5405 5410 5417 5423 5429 5434 5439 5444 5449 5455 5460 5465 5468 5471 5474 5476 5478 5480 5482 5483 5485
5269 5270 5282 5295 5295 5291 5294 5301 5305 5308 5315 5320 5327 5337 5342 5346 5349 5354 5361 5368 5374 5380 5387 5394 5400 5405 5411 5417 5422 5427 5431 5436 5441 5447 5452 5455 5458 5461 5464 5466 5468 5469 5471 5472
5258 5266 5272 5284 5289 5290 5293 5296 5300 5300 5305 5310 5319 5326 5333 5337 5340 5346 5352 5358 5365 5371 5378 5384 5389 5394 5400 5405 5410 5414 5418 5423 5428 5434 5438 5442 5445 5448 5450 5452 5454 5455 5457 5458
5250 5254 5267 5276 5279 5288 5285 5286 5291 5293 5297 5302 5306 5312 5320 5327 5332 5338 5343 5349 5356 5362 5368 5373 5378 5383 5389 5393 5397 5402 5406 5411 5416 5420 5424 5428 5431 5434 5437 5438 5440 5442 5443 5444
5247 5251 5264 5272 5274 5274 5274 5278 5281 5285 5289 5294 5299 5306 5312 5319 5324 5329 5335 5341 5347 5352 5357 5362 5367 5372 5377 5381 5385 5390 5395 5400 5404 5408 5412 5415 5418 5420 5422 5424 5426 5427 5429 5431
5250 5259 5263 5262 5264 5267 5267 5270 5273 5277 5281 5286 5292 5298 5304 5310 5315 5320 5326 5331 5337 5341 5346 5350 5355 5360 5364 5369 5374 5379 5384 5388 5391 5395 5398 5401 5404 5407 5409 5411 5413 5415 5417 5419
5246 5254 5255 5257 5258 5261 5262 5264 5269 5272 5275 5280 5283 5289 5294 5300 5306 5311 5317 5322 5327 5331 5335 5339 5343 5347 5352 5357 5362 5367 5371 5375 5379 5382 5385 5388 5391 5394 5397 5399 5401 5403 5404 5406
5243 5249 5252 5257 5256 5258 5259 5261 5264 5267 5270 5274 5277 5281 5285 5291 5296 5302 5308 5312 5316 5320 5324 5328 5332 5336 5341 5345 5350 5355 5359 5362 5366 5370 5373 5375 5378 5381 5384 5387 5390 5392 5394 5395
5246 5249 5247 5252 5255 5255 5255 5257 5260 5262 5266 5268 5271 5274 5278 5283 5288 5293 5298 5303 5307 5311 5315 5318 5322 5326 5330 5334 5339 5343 5347 5350 5354 5357 5360 5363 5366 5369 5372 5375 5378 5380 5383 5384
5246 5247 5245 5248 5249 5250 5250 5253 5255 5257 5260 5263 5266 5268 5272 5277 5281 5285 5289 5293 5297 5301 5305 5309 5312 5316 5320 5324 5328 5332 5335 5339 5341 5345 5348 5351 5354 5358 5360 5363 5365 5367 5370 5372
5243 5242 5243 5244 5243 5244 5245 5248 5249 5251 5254 5257 5260 5263 5266 5269 5273 5277 5281 5285 5289 5292 5296 5299 5303 5306 5310 5313 5317 5320 5323 5327 5330 5333 5337 5340 5344 5346 5349 5352 5353 5355 5357 5360
5239 5238 5238 5239 5239 5240 5240 5241 5243 5245 5248 5251 5253 5256 5259 5262 5265 5269 5273 5277 5281 5285 5288 5291 5294 5297 5301 5304 5307 5310 5313 5315 5319 5322 5326 5329 5332 5335 5337 5340 5342 5343 5345 5347
5236 5235 5234 5233 5234 5234 5234 5235 5236 5239 5241 5244 5246 5249 5251 5255 5258 5262 5265 5270 5273 5276 5279 5282 5285 5288 5290 5293 5296 5299 5302 5305 5309 5312 5314 5317 5320 5323 5326 5328 5330 5332 5334 5336
5230 5230 5229 5228 5229 5229 5228 5229 5230 5233 5234 5237 5239 5242 5244 5247 5250 5254 5258 5261 5264 5268 5270 5273 5275 5278 5281 5283 5286 5288 5292 5295 5298 5301 5303 5306 5309 5311 5314 5316 5319 5320 5322 5324
5229 5229 5227 5226 5225 5224 5224 5225 5225 5227 5229 5231 5233 5234 5236 5238 5241 5245 5249 5253 5256 5259 5262 5264 5267 5269 5272 5274 5277 5279 5281 5284 5287 5289 5292 5294 5297 5299 5302 5305 5307 5308 5310 5312
5226 5224 5223 5223 5221 5220 5220 5220 5221 5222 5223 5225 5226 5227 5229 5231 5234 5237 5240 5244 5247 5250 5253 5256 5259 5261 5263 5265 5268 5269 5272 5274 5276 5279 5281 5284 5286 5288 5290 5292 5294 5296 5298 5300
5224 5222 5221 5220 5218 5216 5216 5216 5216 5216 5218 5219 5220 5221 5223 5225 5227 5230 5233 5235 5238 5240 5244 5247 5250 5252 5255 5257 5259 5261 5262 5264 5266 5268 5270 5272 5274 5276 5278 5281 5283 5284 5287 5288
5221 5219 5218 5216 5214 5213 5212 5211 5211 5212 5213 5214 5215 5216 5217 5219 5220 5222 5225 5228 5231 5234 5236 5239 5241 5244 5246 5248 5251 5252 5253 5255 5256 5257 5259 5261 5263 5265 5267 5269 5271 5273 5275 5277
5217 5215 5213 5212 5210 5209 5208 5207 5206 5207 5208 5209 5210 5210 5211 5213 5214 5216 5218 5220 5224 5227 5229 5231 5233 5235 5238 5240 5241 5242 5243 5245 5246 5247 5248 5250 5252 5254 5256 5258 5260 5262 5264 5265
5212 5211 5209 5208 5207 5205 5204 5203 5202 5202 5202 5203 5204 5205 5206 5207 5209 5210 5213 5215 5217 5220 5222 5224 5226 5228 5230 5231 5232 5233 5233 5235 5236 5237 5238 5240 5241 5244 5246 5248 5250 5251 5253 5254
5208 5207 5206 5204 5202 5200 5199 5199 5198 5198 5198 5199 5200 5200 5201 5202 5204 5205 5207 5209 5212 5214 5215 5216 5219 5221 5222 5222 5223 5224 5224 5225 5226 5228 5229 5230 5232 5234 5236 5237 5239 5241 5242 5244
5204 5202 5200 5198 5197 5197 5196 5195 5194 5193 5193 5194 5194 5195 5196 5197 5198 5199 5200 5202 5204 5206 5207 5209 5211 5213 5214 5214 5215 5215 5216 5217 5218 5220 5221 5222 5223 5225 5226 5228 5229 5231 5233 5235
5200 5198 5197 5196 5194 5193 5191 5190 5189 5189 5189 5189 5190 5190 5191 5192 5192 5193 5194 5195 5196 5199 5200 5201 5202 5204 5205 5206 5207 5207 5208 5209 5210 5211 5213 5214 5215 5217 5218 5220 5221 5223 5224 5226
5197 5195 5192 5191 5190 5188 5187 5185 5184 5184 5184 5184 5184 5185 5185 5186 5186 5187 5187 5188 5189 5191 5192 5193 5194 5195 5197 5198 5199 5200 5201 5202 5203 5204 5206 5207 5208 5209 5211 5212 5214 5215 5217 5218